Date,TemperatureHighF,TemperatureAvgF,TemperatureLowF,DewpointHighF,DewpointAvgF,DewpointLowF,HumidityHigh,HumidityAvg,HumidityLow,PressureMaxIn,PressureMinIn,WindSpeedMaxMPH,WindSpeedAvgMPH,GustSpeedMaxMPH,PrecipitationSumIn
2013-4-1,61,45,32,43,36,12,93,71,39,29.50,29.21,19,4,19,0.26
2013-4-2,41,33,25,15,8,-4,59,36,18,29.66,29.50,17,4,17,0.00
2013-4-3,45,35,29,12,6,-2,47,31,17,29.88,29.64,21,6,21,0.00
2013-4-4,57,39,25,26,13,3,69,38,15,30.00,29.76,12,3,12,0.00
2013-4-5,61,45,35,31,23,8,73,48,15,29.76,29.34,14,3,14,0.00
2013-4-6,49,37,27,24,8,-4,58,32,16,30.01,29.58,15,4,15,0.00
2013-4-7,56,40,23,40,26,10,81,57,21,30.01,29.71,19,4,19,0.00
2013-4-8,69,53,43,44,38,28,92,62,24,29.77,29.65,10,2,10,0.00
2013-4-9,75,58,45,53,43,36,95,63,30,29.76,29.55,16,3,16,0.00
2013-4-10,69,55,45,52,48,42,99,77,50,29.69,29.53,8,2,8,0.35
2013-4-11,59,49,43,48,42,27,99,77,44,29.80,29.50,10,2,10,0.01
2013-4-12,42,39,37,37,34,29,97,85,61,29.82,29.44,17,5,17,0.41
2013-4-13,56,43,35,39,35,32,97,77,44,29.62,29.41,12,3,12,0.04
2013-4-14,52,41,29,41,29,22,97,66,31,29.91,29.61,14,2,14,0.00
2013-4-15,64,43,27,35,29,22,86,61,29,30.08,29.91,8,2,8,0.00
2013-4-16,66,50,32,49,41,30,97,75,44,30.08,29.79,17,4,17,0.00
2013-4-17,69,56,41,52,36,20,94,53,18,30.02,29.77,11,3,11,0.00
2013-4-18,66,49,32,47,34,24,98,62,25,30.08,29.83,13,3,13,0.00
2013-4-19,72,60,51,62,58,47,99,92,68,29.83,29.37,17,5,17,0.11
2013-4-20,62,52,42,61,42,25,99,71,38,29.92,29.32,16,4,16,0.90
2013-4-21,56,42,30,30,20,11,76,45,18,30.34,29.92,27,3,27,0.00
2013-4-22,58,42,28,34,28,17,93,62,23,30.39,30.23,14,3,14,0.00
2013-4-23,42,39,37,41,38,30,99,93,75,30.24,29.76,14,4,14,0.01
2013-4-24,77,54,40,49,43,34,99,74,22,29.75,29.53,16,4,16,0.00
2013-4-25,53,51,50,52,51,48,99,98,96,29.59,29.55,14,5,14,0.00
2013-4-26,66,49,30,39,32,26,91,59,28,30.09,29.95,7,2,7,0.00
2013-4-27,69,49,32,44,36,30,99,67,31,30.10,29.98,5,2,5,0.00
2013-4-28,72,52,32,44,30,23,99,53,17,30.03,29.92,11,2,11,0.00
2013-4-29,70,55,44,48,35,18,93,55,19,29.97,29.91,7,2,7,0.00
2013-4-30,75,55,39,39,25,11,84,38,10,30.04,29.93,9,1,9,0.00